Time,TemperatureF,DewpointF,PressureIn,WindDirection,WindDirectionDegrees,WindSpeedMPH,WindSpeedGustMPH,Humidity,HourlyPrecipIn,Conditions,Clouds,dailyrainin,SoftwareType,DateUTC
2013-04-30 00:02:00,62.0,55.0,-100.00,SE,135,5.0,7.0,78,0.00,,,0.00,,2013-04-30 04:02:00,
2013-04-30 00:12:00,62.0,55.0,-100.00,ESE,113,5.0,10.0,79,0.00,,,0.00,,2013-04-30 04:12:00,
2013-04-30 00:22:00,62.0,55.0,-100.00,ESE,113,5.0,10.0,79,0.00,,,0.00,,2013-04-30 04:22:00,
2013-04-30 00:32:00,61.0,55.0,-100.00,SE,135,5.0,5.0,80,0.00,,,0.00,,2013-04-30 04:32:00,
2013-04-30 00:42:00,61.0,55.0,-100.00,SE,135,5.0,5.0,80,0.00,,,0.00,,2013-04-30 04:42:00,
2013-04-30 00:52:00,61.0,55.0,-100.00,ESE,113,1.0,6.0,80,0.00,,,0.00,,2013-04-30 04:52:00,
2013-04-30 01:02:00,61.0,55.0,-100.00,ESE,113,2.0,7.0,80,0.00,,,0.00,,2013-04-30 05:02:00,
2013-04-30 01:12:00,61.0,55.0,-100.00,ESE,113,2.0,7.0,80,0.00,,,0.00,,2013-04-30 05:12:00,
2013-04-30 01:22:00,61.0,55.0,-100.00,SE,135,3.0,6.0,81,0.00,,,0.00,,2013-04-30 05:22:00,
2013-04-30 01:31:00,61.0,55.0,-100.00,ESE,113,1.0,0.0,82,0.00,,,0.00,,2013-04-30 05:31:00,
2013-04-30 01:42:00,61.0,55.0,-100.00,ESE,113,1.0,0.0,82,0.00,,,0.00,,2013-04-30 05:42:00,
2013-04-30 01:51:00,61.0,56.0,-100.00,South,180,1.0,0.0,83,0.00,,,0.00,,2013-04-30 05:51:00,
2013-04-30 02:02:00,60.0,55.0,-100.00,ESE,113,0.0,0.0,83,0.00,,,0.00,,2013-04-30 06:02:00,
2013-04-30 02:12:00,60.0,55.0,-100.00,SSE,158,1.0,8.0,84,0.00,,,0.00,,2013-04-30 06:12:00,
2013-04-30 02:21:00,60.0,55.0,-100.00,SSE,158,1.0,8.0,84,0.00,,,0.00,,2013-04-30 06:21:00,
2013-04-30 02:32:00,60.0,55.0,-100.00,SE,135,3.0,6.0,84,0.00,,,0.00,,2013-04-30 06:32:00,
2013-04-30 02:41:00,60.0,55.0,-100.00,SE,135,3.0,6.0,84,0.00,,,0.00,,2013-04-30 06:41:00,
2013-04-30 02:52:00,60.0,55.0,-100.00,SSE,158,2.0,0.0,84,0.00,,,0.00,,2013-04-30 06:52:00,
2013-04-30 03:01:00,60.0,55.0,-100.00,SSE,158,5.0,7.0,85,0.00,,,0.00,,2013-04-30 07:01:00,
2013-04-30 03:11:00,60.0,55.0,-100.00,SSE,158,5.0,7.0,85,0.00,,,0.00,,2013-04-30 07:11:00,
2013-04-30 03:21:00,59.0,55.0,-100.00,South,180,0.0,3.0,87,0.00,,,0.00,,2013-04-30 07:21:00,
2013-04-30 03:32:00,59.0,56.0,-100.00,ESE,113,1.0,3.0,89,0.00,,,0.00,,2013-04-30 07:32:00,
2013-04-30 03:42:00,59.0,56.0,-100.00,ESE,113,1.0,3.0,89,0.00,,,0.00,,2013-04-30 07:42:00,
2013-04-30 03:52:00,59.0,56.0,-100.00,ESE,113,1.0,7.0,90,0.00,,,0.00,,2013-04-30 07:52:00,
2013-04-30 04:02:00,58.0,55.0,-100.00,SSE,158,1.0,6.0,90,0.00,,,0.00,,2013-04-30 08:02:00,
2013-04-30 04:11:00,58.0,55.0,-100.00,SSE,158,1.0,6.0,90,0.00,,,0.00,,2013-04-30 08:11:00,
2013-04-30 04:22:00,58.0,55.0,-100.00,South,180,0.0,0.0,91,0.00,,,0.00,,2013-04-30 08:22:00,
2013-04-30 04:32:00,58.0,55.0,-100.00,SSE,158,1.0,5.0,91,0.00,,,0.00,,2013-04-30 08:32:00,
2013-04-30 04:42:00,58.0,55.0,-100.00,SSE,158,1.0,5.0,91,0.00,,,0.00,,2013-04-30 08:42:00,
2013-04-30 04:52:00,58.0,56.0,-100.00,East,90,2.0,0.0,92,0.00,,,0.00,,2013-04-30 08:52:00,
2013-04-30 05:01:00,57.0,55.0,-100.00,ESE,113,3.0,6.0,92,0.00,,,0.00,,2013-04-30 09:01:00,
2013-04-30 05:11:00,57.0,55.0,-100.00,ESE,113,3.0,6.0,92,0.00,,,0.00,,2013-04-30 09:11:00,
2013-04-30 05:22:00,57.0,55.0,-100.00,SSE,158,3.0,9.0,93,0.00,,,0.00,,2013-04-30 09:22:00,
2013-04-30 05:33:00,57.0,55.0,-100.00,ESE,113,3.0,6.0,94,0.00,,,0.00,,2013-04-30 09:33:00,
2013-04-30 05:43:00,57.0,55.0,-100.00,ESE,113,3.0,6.0,94,0.00,,,0.00,,2013-04-30 09:43:00,
2013-04-30 05:52:00,56.0,54.0,-100.00,SE,135,1.0,0.0,94,0.00,,,0.00,,2013-04-30 09:52:00,
2013-04-30 06:03:00,56.0,54.0,-100.00,SE,135,1.0,0.0,94,0.00,,,0.00,,2013-04-30 10:03:00,
2013-04-30 06:12:00,56.0,54.0,-100.00,SE,135,1.0,0.0,94,0.00,,,0.00,,2013-04-30 10:12:00,
2013-04-30 06:22:00,56.0,55.0,-100.00,SE,135,1.0,0.0,95,0.00,,,0.00,,2013-04-30 10:22:00,
2013-04-30 06:32:00,55.0,54.0,-100.00,East,90,1.0,0.0,95,0.00,,,0.00,,2013-04-30 10:32:00,
2013-04-30 06:41:00,55.0,54.0,-100.00,East,90,1.0,0.0,95,0.00,,,0.00,,2013-04-30 10:41:00,
2013-04-30 06:52:00,55.0,54.0,-100.00,ESE,113,1.0,3.0,95,0.00,,,0.00,,2013-04-30 10:52:00,
2013-04-30 07:02:00,55.0,54.0,-100.00,ESE,113,3.0,8.0,95,0.00,,,0.00,,2013-04-30 11:02:00,
2013-04-30 07:11:00,55.0,54.0,-100.00,ESE,113,3.0,8.0,95,0.00,,,0.00,,2013-04-30 11:11:00,
2013-04-30 07:21:00,55.0,54.0,-100.00,SE,135,1.0,3.0,95,0.00,,,0.00,,2013-04-30 11:21:00,
2013-04-30 07:31:00,56.0,54.0,-100.00,SSE,158,5.0,9.0,94,0.00,,,0.00,,2013-04-30 11:31:00,
2013-04-30 07:42:00,56.0,54.0,-100.00,SSE,158,5.0,9.0,94,0.00,,,0.00,,2013-04-30 11:42:00,
2013-04-30 07:51:00,56.0,54.0,-100.00,SE,135,3.0,7.0,94,0.00,,,0.00,,2013-04-30 11:51:00,
2013-04-30 08:01:00,57.0,55.0,-100.00,South,180,3.0,7.0,93,0.00,,,0.00,,2013-04-30 12:01:00,
2013-04-30 08:11:00,57.0,55.0,-100.00,South,180,3.0,7.0,93,0.00,,,0.00,,2013-04-30 12:11:00,
2013-04-30 08:21:00,58.0,55.0,-100.00,ESE,113,1.0,3.0,90,0.00,,,0.00,,2013-04-30 12:21:00,
2013-04-30 08:31:00,59.0,55.0,-100.00,SSE,158,6.0,8.0,86,0.00,,,0.00,,2013-04-30 12:31:00,
2013-04-30 08:41:00,59.0,55.0,-100.00,SSE,158,6.0,8.0,86,0.00,,,0.00,,2013-04-30 12:41:00,
2013-04-30 08:51:00,59.0,54.0,-100.00,South,180,6.0,8.0,85,0.00,,,0.00,,2013-04-30 12:51:00,
2013-04-30 09:01:00,59.0,54.0,-100.00,South,180,5.0,7.0,84,0.00,,,0.00,,2013-04-30 13:01:00,
2013-04-30 09:11:00,59.0,54.0,-100.00,South,180,5.0,7.0,84,0.00,,,0.00,,2013-04-30 13:11:00,
2013-04-30 09:21:00,59.0,54.0,-100.00,South,180,1.0,6.0,84,0.00,,,0.00,,2013-04-30 13:21:00,
2013-04-30 09:31:00,60.0,54.0,-100.00,SE,135,5.0,7.0,81,0.00,,,0.00,,2013-04-30 13:31:00,
2013-04-30 09:41:00,60.0,54.0,-100.00,SE,135,5.0,7.0,81,0.00,,,0.00,,2013-04-30 13:41:00,
2013-04-30 09:52:00,61.0,54.0,-100.00,SSE,158,7.0,12.0,77,0.00,,,0.00,,2013-04-30 13:52:00,
2013-04-30 10:02:00,61.0,54.0,-100.00,SSE,158,7.0,10.0,78,0.00,,,0.00,,2013-04-30 14:02:00,
2013-04-30 10:11:00,60.0,55.0,-100.00,South,180,7.0,9.0,83,0.00,,,0.00,,2013-04-30 14:11:00,
2013-04-30 10:21:00,60.0,55.0,-100.00,South,180,7.0,9.0,83,0.00,,,0.00,,2013-04-30 14:21:00,
2013-04-30 10:31:00,59.0,55.0,-100.00,SSE,158,5.0,6.0,87,0.00,,,0.00,,2013-04-30 14:31:00,
2013-04-30 10:41:00,59.0,55.0,-100.00,SSE,158,5.0,6.0,87,0.00,,,0.00,,2013-04-30 14:41:00,
2013-04-30 10:52:00,58.0,56.0,-100.00,South,180,0.0,0.0,92,0.00,,,0.00,,2013-04-30 14:52:00,
2013-04-30 11:01:00,58.0,56.0,-100.00,ESE,113,0.0,0.0,94,0.00,,,0.00,,2013-04-30 15:01:00,
2013-04-30 11:11:00,58.0,56.0,-100.00,ESE,113,0.0,0.0,94,0.00,,,0.00,,2013-04-30 15:11:00,
2013-04-30 11:21:00,57.0,56.0,-100.00,East,90,0.0,0.0,96,0.00,,,0.00,,2013-04-30 15:21:00,
2013-04-30 11:32:00,57.0,56.0,-100.00,SE,135,0.0,0.0,97,0.00,,,0.00,,2013-04-30 15:32:00,
2013-04-30 11:42:00,57.0,56.0,-100.00,SE,135,0.0,0.0,97,0.00,,,0.00,,2013-04-30 15:42:00,
2013-04-30 11:52:00,57.0,57.0,-100.00,SE,135,0.0,0.0,99,0.00,,,0.00,,2013-04-30 15:52:00,
2013-04-30 12:02:00,57.0,57.0,-100.00,ESE,113,1.0,8.0,100,0.00,,,0.00,,2013-04-30 16:02:00,
2013-04-30 12:12:00,57.0,57.0,-100.00,ESE,113,1.0,8.0,100,0.00,,,0.00,,2013-04-30 16:12:00,
2013-04-30 12:23:00,57.0,57.0,-100.00,East,90,2.0,7.0,100,0.00,,,0.00,,2013-04-30 16:23:00,
2013-04-30 12:33:00,57.0,57.0,-100.00,East,90,2.0,8.0,100,0.00,,,0.00,,2013-04-30 16:33:00,
2013-04-30 12:42:00,57.0,57.0,-100.00,East,90,2.0,8.0,100,0.00,,,0.00,,2013-04-30 16:42:00,
2013-04-30 12:52:00,58.0,58.0,-100.00,SE,135,2.0,10.0,99,0.00,,,0.00,,2013-04-30 16:52:00,
2013-04-30 13:02:00,59.0,58.0,-100.00,ESE,113,8.0,14.0,98,0.00,,,0.00,,2013-04-30 17:02:00,
2013-04-30 13:12:00,59.0,57.0,-100.00,SE,135,6.0,9.0,94,0.00,,,0.00,,2013-04-30 17:12:00,
2013-04-30 13:22:00,59.0,57.0,-100.00,SE,135,6.0,9.0,94,0.00,,,0.00,,2013-04-30 17:22:00,
2013-04-30 13:32:00,60.0,57.0,-100.00,SSE,158,7.0,9.0,91,0.00,,,0.00,,2013-04-30 17:32:00,
2013-04-30 13:42:00,61.0,57.0,-100.00,South,180,5.0,8.0,88,0.00,,,0.00,,2013-04-30 17:42:00,
2013-04-30 13:52:00,61.0,57.0,-100.00,South,180,5.0,8.0,88,0.00,,,0.00,,2013-04-30 17:52:00,
2013-04-30 14:01:00,62.0,57.0,-100.00,SE,135,6.0,8.0,85,0.00,,,0.00,,2013-04-30 18:01:00,
2013-04-30 14:11:00,63.0,58.0,-100.00,SE,135,5.0,9.0,84,0.00,,,0.00,,2013-04-30 18:11:00,
2013-04-30 14:22:00,63.0,58.0,-100.00,SE,135,5.0,9.0,84,0.00,,,0.00,,2013-04-30 18:22:00,
2013-04-30 14:32:00,63.0,57.0,-100.00,SSE,158,8.0,13.0,80,0.00,,,0.00,,2013-04-30 18:32:00,
2013-04-30 14:42:00,64.0,57.0,-100.00,SE,135,9.0,17.0,77,0.00,,,0.00,,2013-04-30 18:42:00,
2013-04-30 14:52:00,64.0,57.0,-100.00,SE,135,9.0,17.0,77,0.00,,,0.00,,2013-04-30 18:52:00,
2013-04-30 15:01:00,65.0,56.0,-100.00,SE,135,8.0,14.0,72,0.00,,,0.00,,2013-04-30 19:01:00,
2013-04-30 15:11:00,66.0,56.0,-100.00,SE,135,9.0,10.0,70,0.00,,,0.00,,2013-04-30 19:11:00,
2013-04-30 15:22:00,66.0,56.0,-100.00,SE,135,9.0,10.0,70,0.00,,,0.00,,2013-04-30 19:22:00,
2013-04-30 15:32:00,66.0,56.0,-100.00,SE,135,9.0,12.0,69,0.00,,,0.00,,2013-04-30 19:32:00,
2013-04-30 15:42:00,66.0,55.0,-100.00,SE,135,8.0,13.0,68,0.00,,,0.00,,2013-04-30 19:42:00,
2013-04-30 15:52:00,66.0,55.0,-100.00,SE,135,8.0,13.0,68,0.00,,,0.00,,2013-04-30 19:52:00,
2013-04-30 16:02:00,68.0,55.0,-100.00,SE,135,9.0,13.0,64,0.00,,,0.00,,2013-04-30 20:02:00,
2013-04-30 16:11:00,69.0,54.0,-100.00,SE,135,8.0,12.0,58,0.00,,,0.00,,2013-04-30 20:11:00,
2013-04-30 16:21:00,69.0,54.0,-100.00,SE,135,8.0,12.0,58,0.00,,,0.00,,2013-04-30 20:21:00,
2013-04-30 16:32:00,70.0,53.0,-100.00,SSE,158,14.0,20.0,55,0.00,,,0.00,,2013-04-30 20:32:00,
2013-04-30 16:42:00,70.0,53.0,-100.00,SSE,158,14.0,20.0,55,0.00,,,0.00,,2013-04-30 20:42:00,
2013-04-30 16:52:00,70.0,53.0,-100.00,SE,135,12.0,18.0,54,0.00,,,0.00,,2013-04-30 20:52:00,
2013-04-30 17:02:00,70.0,52.0,-100.00,SE,135,14.0,22.0,53,0.00,,,0.00,,2013-04-30 21:02:00,
2013-04-30 17:11:00,71.0,52.0,-100.00,ESE,113,7.0,10.0,52,0.00,,,0.00,,2013-04-30 21:11:00,
2013-04-30 17:22:00,71.0,52.0,-100.00,ESE,113,7.0,10.0,52,0.00,,,0.00,,2013-04-30 21:22:00,
2013-04-30 17:32:00,72.0,53.0,-100.00,SSE,158,8.0,16.0,52,0.00,,,0.00,,2013-04-30 21:32:00,
2013-04-30 17:42:00,72.0,53.0,-100.00,SSE,158,8.0,16.0,52,0.00,,,0.00,,2013-04-30 21:42:00,
2013-04-30 17:53:00,72.0,52.0,-100.00,South,180,9.0,17.0,49,0.00,,,0.00,,2013-04-30 21:53:00,
2013-04-30 18:02:00,72.0,52.0,-100.00,South,180,8.0,12.0,49,0.00,,,0.00,,2013-04-30 22:02:00,
2013-04-30 18:12:00,72.0,52.0,-100.00,SE,135,9.0,9.0,49,0.00,,,0.00,,2013-04-30 22:12:00,
2013-04-30 18:23:00,72.0,52.0,-100.00,SE,135,9.0,9.0,49,0.00,,,0.00,,2013-04-30 22:23:00,
2013-04-30 18:32:00,72.0,52.0,-100.00,SE,135,9.0,14.0,50,0.00,,,0.00,,2013-04-30 22:32:00,
2013-04-30 18:42:00,72.0,52.0,-100.00,SE,135,9.0,14.0,50,0.00,,,0.00,,2013-04-30 22:42:00,
2013-04-30 18:53:00,71.0,52.0,-100.00,SE,135,7.0,14.0,51,0.00,,,0.00,,2013-04-30 22:53:00,
2013-04-30 19:02:00,72.0,53.0,-100.00,SSE,158,5.0,8.0,51,0.00,,,0.00,,2013-04-30 23:02:00,
2013-04-30 19:12:00,71.0,52.0,-100.00,SW,225,3.0,6.0,52,0.00,,,0.00,,2013-04-30 23:12:00,
2013-04-30 19:22:00,71.0,52.0,-100.00,SW,225,3.0,6.0,52,0.00,,,0.00,,2013-04-30 23:22:00,
2013-04-30 19:32:00,71.0,52.0,-100.00,SSE,158,12.0,14.0,52,0.00,,,0.00,,2013-04-30 23:32:00,
2013-04-30 19:42:00,71.0,52.0,-100.00,SSE,158,12.0,14.0,52,0.00,,,0.00,,2013-04-30 23:42:00,
2013-04-30 19:52:00,71.0,54.0,-100.00,SSE,158,9.0,16.0,54,0.00,,,0.00,,2013-04-30 23:52:00,
2013-04-30 20:02:00,70.0,54.0,-100.00,SSE,158,8.0,14.0,56,0.00,,,0.00,,2013-05-01 00:02:00,
2013-04-30 20:11:00,70.0,54.0,-100.00,SSE,158,8.0,14.0,56,0.00,,,0.00,,2013-05-01 00:11:00,
2013-04-30 20:22:00,69.0,54.0,-100.00,SSE,158,8.0,14.0,58,0.00,,,0.00,,2013-05-01 00:22:00,
2013-04-30 20:32:00,69.0,54.0,-100.00,SSE,158,6.0,10.0,59,0.00,,,0.00,,2013-05-01 00:32:00,
2013-04-30 20:42:00,69.0,54.0,-100.00,SSE,158,6.0,10.0,59,0.00,,,0.00,,2013-05-01 00:42:00,
2013-04-30 20:52:00,69.0,55.0,-100.00,SE,135,7.0,8.0,60,0.00,,,0.00,,2013-05-01 00:52:00,
2013-04-30 21:01:00,68.0,54.0,-100.00,SSE,158,7.0,8.0,61,0.00,,,0.00,,2013-05-01 01:01:00,
2013-04-30 21:11:00,68.0,54.0,-100.00,SSE,158,7.0,8.0,61,0.00,,,0.00,,2013-05-01 01:11:00,
2013-04-30 21:21:00,68.0,54.0,-100.00,SSE,158,6.0,7.0,62,0.00,,,0.00,,2013-05-01 01:21:00,
2013-04-30 21:32:00,68.0,55.0,-100.00,SE,135,6.0,8.0,63,0.00,,,0.00,,2013-05-01 01:32:00,
2013-04-30 21:42:00,68.0,55.0,-100.00,SE,135,6.0,8.0,63,0.00,,,0.00,,2013-05-01 01:42:00,
2013-04-30 21:52:00,67.0,54.0,-100.00,SSE,158,6.0,7.0,64,0.00,,,0.00,,2013-05-01 01:52:00,
2013-04-30 22:02:00,67.0,55.0,-100.00,SSE,158,6.0,8.0,65,0.00,,,0.00,,2013-05-01 02:02:00,
2013-04-30 22:11:00,66.0,54.0,-100.00,SSE,158,8.0,12.0,65,0.00,,,0.00,,2013-05-01 02:11:00,
2013-04-30 22:21:00,66.0,54.0,-100.00,SSE,158,8.0,12.0,65,0.00,,,0.00,,2013-05-01 02:21:00,
2013-04-30 22:32:00,66.0,54.0,-100.00,South,180,3.0,8.0,66,0.00,,,0.00,,2013-05-01 02:32:00,
2013-04-30 22:42:00,66.0,54.0,-100.00,South,180,3.0,8.0,66,0.00,,,0.00,,2013-05-01 02:42:00,
2013-04-30 22:52:00,65.0,54.0,-100.00,SSE,158,7.0,13.0,68,0.00,,,0.00,,2013-05-01 02:52:00,
2013-04-30 23:02:00,65.0,55.0,-100.00,ESE,113,3.0,5.0,70,0.00,,,0.00,,2013-05-01 03:02:00,
2013-04-30 23:11:00,65.0,55.0,-100.00,ESE,113,3.0,5.0,70,0.00,,,0.00,,2013-05-01 03:11:00,
2013-04-30 23:21:00,64.0,54.0,-100.00,SE,135,5.0,9.0,70,0.00,,,0.00,,2013-05-01 03:21:00,
2013-04-30 23:33:00,64.0,54.0,-100.00,SSE,158,7.0,9.0,71,0.00,,,0.00,,2013-05-01 03:33:00,
2013-04-30 23:43:00,64.0,54.0,-100.00,SSE,158,7.0,9.0,71,0.00,,,0.00,,2013-05-01 03:43:00,
2013-04-30 23:53:00,64.0,54.0,-100.00,SE,135,3.0,7.0,71,0.00,,,0.00,,2013-05-01 03:53:00,